[[{"header":{"parameterUnit":"m.s-1","parameterCategory":2,"la1":30.2991,"la2":30.254,"lo1":-89.0895,"lo2":-89.0444,"dy":0.0017,"dx":0.0017,"nx":28,"ny":28,"refTime":"2024-03-12T21:00:00:Z","depth":"0","parameterNumber":2,"parameterNumberName":"U-component_of_CURRENTS"},"data":[0,0,0,0,0,0,0,0,0,0,0,0,0,0,0,0,0,0,0,0,0,0,0,0,0,0,0,0,0,0,0,0,0,0,0,0,0,0,0,0,0,0,0,0,0,0,0,0,0,0,0,0,0,0,0,0,0,0,0.2342,0.2343,0,0.2393,0.2393,0.2394,0.2383,0.2382,0.2381,0.2381,0.2383,0.2383,0.2384,0,0,0,0,0,0,0,0,0,0,0,0,0,0.2224,0.2226,0.2342,0.2343,0.2344,0.2393,0.2393,0.2394,0.2383,0.2382,0.2381,0.2381,0.2383,0.2383,0.2384,0,0,0,0,0,0,0,0,0,0,0,0,0,0.2272,0.2227,0.2342,0.2347,0.2348,0.2393,0.2393,0.2394,0.2383,0.2382,0.2381,0.238,0.2382,0.2383,0.2384,0.2409,0,0,0.2387,0.2387,0,0,0,0,0,0,0,0,0.2269,0.2276,0.2345,0.2347,0.2348,0.2384,0.2353,0.2398,0.2383,0.2366,0.2381,0.238,0.2382,0.2383,0.239,0.2409,0.2409,0.2387,0.2388,0.2388,0.2388,0,0,0,0,0,0,0,0.2266,0.2274,0.2359,0.2347,0.2348,0.2343,0.2349,0.2361,0.2375,0.2367,0.2368,0.2379,0.2381,0.2389,0.239,0.2409,0.2387,0.2388,0.2389,0.2389,0.246,0.2462,0,0,0,0,0,0,0.2269,0.2271,0.2357,0.2361,0.231,0.2347,0.2352,0.237,0.2376,0.2377,0.238,0.2379,0.2388,0.2389,0.239,0.2429,0.2388,0.2389,0.239,0.2459,0.2461,0.2462,0,0,0,0,0,0,0.2266,0.2277,0.2355,0.2319,0.2329,0.235,0.237,0.2372,0.2382,0.2387,0.2386,0.2388,0.2387,0.2388,0.2403,0.2429,0.2389,0.239,0.2458,0.246,0.2461,0.2502,0,0,0,0,0,0,0.2263,0.2275,0.2286,0.232,0.2331,0.2389,0.2371,0.2374,0.2392,0.2391,0.2394,0.2393,0.2386,0.2401,0.2404,0.2429,0.2391,0.2456,0.2458,0.2461,0.2499,0.2505,0.251,0,0,0,0,0,0.2259,0.2274,0.2286,0.2296,0.2346,0.2391,0.2396,0.2404,0.2394,0.2407,0.2403,0.2393,0.2419,0.2403,0.2406,0.2432,0.2455,0.2458,0.2461,0.2496,0.2504,0.251,0,0,0,0,0,0,0.2225,0.2277,0.2289,0.2319,0.2358,0.239,0.2402,0.2411,0.242,0.2412,0.2406,0.2406,0.2433,0.2428,0.241,0.2461,0.2437,0.2441,0.2463,0.247,0.2476,0.2476,0.2392,0,0,0,0,0,0.2226,0.2249,0.2303,0.2324,0.2348,0.2377,0.2394,0.2405,0.2421,0.2424,0.2432,0.2436,0.245,0.2454,0.2467,0.2491,0.2521,0.2511,0.2517,0.2522,0.2525,0.2582,0.2593,0.2472,0.2472,0.2472,0,0,0.2214,0.2248,0.2258,0.2318,0.2345,0.2382,0.2384,0.2416,0.2436,0.2423,0.2449,0.246,0.2462,0.249,0.2502,0.2486,0.2582,0.2525,0.2529,0.253,0.2586,0.2598,0.2609,0.2474,0.2474,0.2473,0,0,0.2207,0.2241,0.2262,0.2301,0.2355,0.2382,0.2395,0.2442,0.2454,0.2481,0.2482,0.2506,0.2522,0.2538,0.2542,0.2588,0.2613,0.2597,0.2622,0.2677,0.2688,0.2697,0.2792,0.2809,0.2595,0.2595,0.2595,0,0.2193,0.2233,0.2274,0.2311,0.2341,0.2384,0.2416,0.2443,0.2484,0.25,0.249,0.2542,0.2544,0.2585,0.26,0.2601,0.2651,0.2593,0.2685,0.2695,0.2704,0.2798,0.2816,0.2598,0.2597,0.2597,0.2597,0,0.2206,0.2243,0.2262,0.2324,0.236,0.2397,0.2449,0.2482,0.25,0.2526,0.2575,0.2591,0.2619,0.2633,0.2625,0.2696,0.272,0.269,0.2667,0.2718,0.2815,0.2834,0.2601,0.26,0.2599,0.2599,0,0,0.2176,0.2255,0.2263,0.2295,0.2372,0.2404,0.2448,0.2507,0.2547,0.2578,0.2634,0.2654,0.2675,0.2683,0.2698,0.2743,0.2859,0.2745,0.2747,0.2838,0.3026,0.3022,0.3042,0.2847,0.2849,0.2851,0.3083,0,0.2182,0.2234,0.2277,0.2333,0.2374,0.2428,0.2473,0.2524,0.2573,0.2643,0.2669,0.2729,0.2692,0.2729,0.2763,0.2843,0.2904,0.2802,0.2962,0.2968,0.2956,0.3061,0.2929,0.3121,0.3101,0.3104,0.3106,0,0.2199,0.223,0.2275,0.2354,0.2378,0.241,0.2498,0.255,0.2646,0.2687,0.2741,0.2784,0.2868,0.2828,0.2969,0.291,0.2969,0.302,0.303,0.3019,0.2997,0.3058,0.3155,0.3053,0.3135,0.3133,0.313,0,0.2175,0.2242,0.227,0.2297,0.2384,0.2408,0.246,0.2552,0.2623,0.2737,0.281,0.2884,0.2968,0.3026,0.3118,0.3061,0.3293,0.3223,0.3281,0.3284,0.3197,0.3187,0.3206,0.3325,0.3324,0.3324,0.3323,0,0.2198,0.2232,0.2254,0.2281,0.2335,0.239,0.2478,0.2545,0.2662,0.2772,0.2836,0.2949,0.3023,0.3152,0.3189,0.3319,0.3351,0.3323,0.3345,0.3212,0.3201,0.3125,0.3076,0.3332,0.3331,0.3329,0.3327,0,0.2231,0.2233,0.2284,0.2327,0.2337,0.239,0.2502,0.2581,0.2678,0.2833,0.2882,0.3046,0.3214,0.3301,0.3456,0.3441,0.3455,0.3576,0.3439,0.3439,0.3339,0.3297,0.3267,0.3171,0.3673,0.3674,0.3675,0,0.2273,0.2286,0.2314,0.2337,0.2366,0.2431,0.2492,0.2589,0.268,0.2896,0.298,0.3186,0.3313,0.3548,0.3594,0.3697,0.3546,0.3622,0.3457,0.3352,0.3323,0.3172,0.3081,0.339,0.3388,0.3387,0.3386,0,0.2347,0.2336,0.2363,0.2392,0.2435,0.2501,0.2579,0.2634,0.2773,0.2889,0.3058,0.3171,0.3421,0.3475,0.3623,0.3652,0.3429,0.3602,0.3514,0.3133,0.295,0.2861,0.3254,0.3377,0.3378,0.3378,0.3379,0.3379,0.2386,0.241,0.2398,0.2436,0.2487,0.2516,0.2534,0.2626,0.2721,0.285,0.3036,0.3151,0.3308,0.3489,0.3501,0.3434,0.341,0.331,0.3291,0.3166,0.2982,0.3379,0.3496,0.3498,0.3499,0.35,0.3501,0,0.2383,0.2381,0.2432,0.2428,0.2459,0.249,0.255,0.2542,0.2586,0.2774,0.2892,0.3027,0.3094,0.3173,0.3218,0.3127,0.2947,0.3041,0.277,0.2711,0.3098,0.2988,0.2971,0.2971,0.2971,0.2971,0.2971,0.2971,0.2368,0.2357,0.2362,0.235,0.2365,0.2343,0.2341,0.2353,0.2431,0.251,0.2587,0.2723,0.2907,0.301,0.2931,0.2861,0.2622,0.2533,0.2524,0.2766,0.2787,0.2806,0.2689,0.261,0.2609,0.199,0.1985,0.1982]},{"header":{"parameterUnit":"m.s-1","parameterCategory":2,"la1":30.2991,"la2":30.254,"lo1":-89.0895,"lo2":-89.0444,"dy":0.0017,"dx":0.0017,"nx":28,"ny":28,"refTime":"2024-03-12T21:00:00:Z","depth":"0","parameterNumber":3,"parameterNumberName":"V-component_of_CURRENTS"},"data":[0,0,0,0,0,0,0,0,0,0,0,0,0,0,0,0,0,0,0,0,0,0,0,0,0,0,0,0,0,0,0,0,0,0,0,0,0,0,0,0,0,0,0,0,0,0,0,0,0,0,0,0,0,0,0,0,0,0,0.0279,0.0279,0,0.0266,0.0266,0.0266,0.0249,0.0249,0.0249,0.0249,0.0164,0.0162,0.016,0,0,0,0,0,0,0,0,0,0,0,0,0,0.0267,0.0267,0.0279,0.0279,0.0279,0.0266,0.0266,0.0266,0.025,0.0249,0.0249,0.0249,0.0164,0.0162,0.0159,0,0,0,0,0,0,0,0,0,0,0,0,0,0.0265,0.0268,0.0279,0.027,0.0269,0.0266,0.0266,0.0266,0.025,0.0249,0.0249,0.0249,0.0165,0.0162,0.0159,0.0146,0,0,0.015,0.0148,0,0,0,0,0,0,0,0,0.0265,0.0265,0.0271,0.027,0.0269,0.026,0.0231,0.0222,0.025,0.0256,0.0249,0.0249,0.019,0.0185,0.0183,0.0142,0.0138,0.0149,0.0147,0.0146,0.0145,0,0,0,0,0,0,0,0.0265,0.0265,0.0273,0.0271,0.027,0.0259,0.0258,0.0229,0.0223,0.0256,0.0254,0.0254,0.0189,0.0186,0.0181,0.0137,0.0149,0.0147,0.0145,0.0143,0.0087,0.0087,0,0,0,0,0,0,0.0269,0.0266,0.0274,0.0273,0.0267,0.0259,0.0258,0.0263,0.0225,0.022,0.0255,0.0254,0.0192,0.0184,0.0177,0.0165,0.0146,0.0143,0.0141,0.0086,0.0087,0.0087,0,0,0,0,0,0,0.0269,0.0271,0.0274,0.0269,0.0269,0.026,0.0264,0.0262,0.026,0.0225,0.0218,0.0255,0.0191,0.0182,0.0165,0.0161,0.0142,0.0139,0.0086,0.0086,0.0087,0.0135,0,0,0,0,0,0,0.0269,0.0271,0.0274,0.027,0.0269,0.0277,0.0265,0.0262,0.0261,0.026,0.0223,0.0215,0.019,0.017,0.0162,0.0156,0.0136,0.0085,0.0086,0.0087,0.0133,0.0137,0.0141,0,0,0,0,0,0.0269,0.0278,0.0275,0.0275,0.0275,0.0277,0.0276,0.0268,0.0261,0.0264,0.0246,0.0216,0.0168,0.0168,0.0158,0.0152,0.0085,0.0086,0.0087,0.0131,0.0136,0.0141,0,0,0,0,0,0,0.0277,0.0277,0.0273,0.0283,0.0281,0.0275,0.0277,0.0271,0.0259,0.0258,0.0223,0.0214,0.0195,0.0171,0.0172,0.0138,0.012,0.0119,0.0157,0.0161,0.0165,0.0189,0.0134,0,0,0,0,0,0.028,0.0287,0.0284,0.0291,0.0292,0.0284,0.0284,0.028,0.027,0.0265,0.0243,0.0217,0.0191,0.0176,0.0151,0.0134,0.0119,0.0123,0.0127,0.013,0.0144,0.0121,0.0124,0.009,0.009,0.009,0,0,0.0285,0.0287,0.029,0.0293,0.0291,0.0302,0.0283,0.0288,0.0295,0.0256,0.0258,0.0228,0.0191,0.0175,0.0163,0.0154,0.0133,0.0132,0.0135,0.0147,0.0122,0.0125,0.0128,0.009,0.009,0.009,0,0,0.0304,0.03,0.0313,0.0315,0.0317,0.0315,0.0318,0.0314,0.031,0.0308,0.0281,0.0257,0.0223,0.0198,0.0178,0.0188,0.0155,0.0174,0.021,0.0187,0.019,0.0192,0.0182,0.0183,0.0175,0.0175,0.0175,0,0.031,0.0329,0.0317,0.0332,0.034,0.0324,0.0344,0.0337,0.033,0.033,0.0315,0.0275,0.0234,0.0216,0.0219,0.0195,0.0186,0.0195,0.0193,0.0194,0.0196,0.0185,0.0186,0.0177,0.0177,0.0177,0.0177,0,0.034,0.0355,0.0363,0.0379,0.0383,0.0398,0.0391,0.0392,0.0384,0.0378,0.0363,0.0319,0.0295,0.0272,0.0246,0.0235,0.0227,0.0201,0.0183,0.0202,0.019,0.0189,0.0181,0.018,0.0179,0.0179,0,0,0.0365,0.0382,0.0386,0.0405,0.0412,0.0423,0.0432,0.044,0.0458,0.043,0.045,0.0389,0.0367,0.0345,0.0304,0.0282,0.0273,0.0253,0.025,0.0248,0.0239,0.022,0.0218,0.0248,0.0249,0.0249,0.0228,0,0.0397,0.0437,0.0433,0.0475,0.0501,0.0488,0.0506,0.0506,0.0501,0.0515,0.0462,0.0463,0.0393,0.0392,0.0352,0.0304,0.0275,0.0283,0.0217,0.0215,0.02,0.0217,0.0198,0.0177,0.0227,0.0227,0.0227,0,0.0435,0.046,0.0504,0.0541,0.0551,0.0567,0.0598,0.0616,0.0616,0.0613,0.0591,0.0558,0.0522,0.0465,0.0378,0.039,0.0318,0.0272,0.027,0.0238,0.0196,0.0164,0.0174,-0.0,0.0226,0.0226,0.0226,0,0.0478,0.0513,0.0552,0.0563,0.0596,0.0612,0.0635,0.0647,0.0695,0.0689,0.073,0.0651,0.0659,0.0546,0.0438,0.0412,0.0356,0.03,0.0213,0.0211,0.0176,0.0171,0.0014,0.0233,0.0233,0.0233,0.0233,0,0.0529,0.0567,0.0575,0.0602,0.0666,0.0665,0.0744,0.0746,0.0795,0.0887,0.0795,0.0858,0.0685,0.0631,0.0487,0.0365,0.0384,0.0232,0.0206,0.0192,0.0189,0.0019,-0.006,0.0232,0.0232,0.0233,0.0233,0,0.0603,0.0593,0.0655,0.0683,0.0693,0.0753,0.0845,0.0923,0.0934,0.1055,0.1071,0.1035,0.0959,0.0777,0.0619,0.0463,0.0229,0.027,0.0273,0.0247,-0.002,-0.0094,-0.0245,-0.0305,0.0161,0.016,0.016,0,0.0664,0.0694,0.073,0.078,0.0802,0.0883,0.0965,0.0997,0.1096,0.1189,0.1271,0.1224,0.123,0.0974,0.0671,0.0406,0.0239,0.0212,0.0138,-0.0028,-0.013,-0.019,-0.0234,0.0111,0.011,0.0109,0.0109,0,0.0803,0.0794,0.0846,0.0929,0.1006,0.1108,0.1214,0.1303,0.1382,0.1473,0.159,0.1597,0.1348,0.1076,0.069,0.0485,0.0088,0.0189,0.0009,-0.0184,-0.025,-0.0321,0.0126,0.0103,0.0103,0.0104,0.0104,0.0104,0.0919,0.0983,0.1027,0.1108,0.1205,0.1326,0.1424,0.1547,0.17,0.1836,0.183,0.1847,0.1423,0.0891,0.061,0.0031,0.0053,-0.0158,-0.0231,-0.0275,-0.0349,0.0096,0.0045,0.0045,0.0045,0.0046,0.0046,0,0.1054,0.1103,0.1209,0.1298,0.1416,0.1423,0.1596,0.1704,0.1883,0.1984,0.2061,0.1822,0.133,0.0794,0.004,-0.0327,-0.0458,-0.0537,-0.0648,-0.0669,-0.0289,-0.031,-0.043,-0.043,-0.043,-0.043,-0.0429,-0.0429,0.1135,0.1226,0.1261,0.1452,0.1525,0.1677,0.1768,0.1923,0.2017,0.2119,0.2074,0.2018,0.1573,0.0316,-0.0555,-0.0754,-0.0972,-0.1036,-0.1124,-0.0904,-0.0875,-0.0848,-0.089,-0.1129,-0.1129,-0.148,-0.1483,-0.1486]}],[{"header":{"parameterUnit":"m.s-1","parameterCategory":2,"la1":30.2991,"la2":30.254,"lo1":-89.0895,"lo2":-89.0444,"dy":0.0017,"dx":0.0017,"nx":28,"ny":28,"refTime":"2024-03-12T21:00:00:Z","depth":"2","parameterNumber":2,"parameterNumberName":"U-component_of_CURRENTS"},"data":[0,0,0,0,0,0,0,0,0,0,0,0,0,0,0,0,0,0,0,0,0,0,0,0,0,0,0,0,0,0,0,0,0,0,0,0,0,0,0,0,0,0,0,0,0,0,0,0,0,0,0,0,0,0,0,0,0,0,0.2047,0.2047,0,0.2094,0.2094,0.2094,0.211,0.211,0.211,0.211,0.2192,0.2194,0.2196,0,0,0,0,0,0,0,0,0,0,0,0,0,0.1973,0.1974,0.2046,0.2047,0.2048,0.2094,0.2094,0.2095,0.211,0.211,0.211,0.211,0.2191,0.2193,0.2196,0,0,0,0,0,0,0,0,0,0,0,0,0,0.2008,0.1974,0.2046,0.2063,0.2065,0.2094,0.2094,0.2095,0.211,0.211,0.211,0.211,0.219,0.2193,0.2196,0.2216,0,0,0.2206,0.2208,0,0,0,0,0,0,0,0,0.2006,0.2011,0.206,0.2062,0.2064,0.2098,0.2098,0.2138,0.211,0.209,0.211,0.211,0.2165,0.217,0.2175,0.222,0.2223,0.2207,0.2209,0.221,0.2211,0,0,0,0,0,0,0,0.2004,0.2009,0.2063,0.2061,0.2064,0.2069,0.2074,0.2105,0.2126,0.2092,0.2094,0.2103,0.2166,0.2172,0.2177,0.2225,0.2206,0.2209,0.2211,0.2213,0.2323,0.2324,0,0,0,0,0,0,0.2003,0.2007,0.2061,0.2064,0.2038,0.2071,0.2076,0.2085,0.2125,0.2131,0.2103,0.2103,0.2166,0.2174,0.218,0.2235,0.221,0.2213,0.2215,0.2322,0.2323,0.2325,0,0,0,0,0,0,0.2001,0.2007,0.2059,0.2038,0.2046,0.2072,0.2082,0.2086,0.2108,0.2133,0.214,0.2123,0.2167,0.2176,0.2204,0.2237,0.2214,0.2217,0.2321,0.2323,0.2324,0.2326,0,0,0,0,0,0,0.1999,0.2006,0.2016,0.2038,0.2047,0.2109,0.2083,0.2087,0.2114,0.2116,0.2153,0.2159,0.2167,0.2199,0.2207,0.2241,0.222,0.232,0.2322,0.2324,0.2324,0.2327,0.2329,0,0,0,0,0,0.1996,0.2007,0.2017,0.2024,0.2059,0.2112,0.2118,0.2134,0.2115,0.2148,0.214,0.2159,0.2217,0.2201,0.2211,0.2247,0.2319,0.2321,0.2323,0.2323,0.2327,0.2329,0,0,0,0,0,0,0.1979,0.2011,0.2021,0.2042,0.2091,0.2116,0.2132,0.2144,0.2162,0.2147,0.2162,0.2169,0.2215,0.2227,0.2209,0.2285,0.2276,0.228,0.2273,0.2276,0.2279,0.2285,0.2223,0,0,0,0,0,0.1981,0.1997,0.2043,0.2062,0.2083,0.211,0.213,0.2144,0.2161,0.2169,0.2188,0.2203,0.223,0.2247,0.2278,0.2311,0.2343,0.2344,0.2346,0.2348,0.236,0.2398,0.2405,0.2332,0.2332,0.2332,0,0,0.1976,0.1998,0.2005,0.2061,0.2084,0.2111,0.2122,0.2156,0.2177,0.2175,0.2198,0.222,0.2243,0.228,0.2302,0.2292,0.2394,0.2351,0.2352,0.2363,0.2401,0.2408,0.2415,0.2333,0.2333,0.2333,0,0,0.1974,0.1998,0.2013,0.2054,0.2103,0.212,0.2136,0.2175,0.2197,0.2225,0.2226,0.2256,0.2297,0.2318,0.2331,0.2368,0.241,0.239,0.2403,0.2439,0.2446,0.2451,0.2532,0.2545,0.2384,0.2384,0.2384,0,0.1969,0.1994,0.2031,0.2061,0.2089,0.2123,0.2151,0.2177,0.2219,0.2242,0.2236,0.2296,0.2314,0.236,0.2367,0.2376,0.2416,0.2385,0.2442,0.2448,0.2454,0.2535,0.2549,0.2385,0.2385,0.2385,0.2385,0,0.1982,0.2007,0.2021,0.206,0.2101,0.2134,0.2179,0.2214,0.2228,0.2254,0.2317,0.2336,0.2377,0.2391,0.2385,0.2446,0.2472,0.2444,0.2431,0.2461,0.2546,0.256,0.2385,0.2385,0.2385,0.2385,0,0,0.1959,0.2017,0.2022,0.2046,0.2106,0.2137,0.2177,0.2237,0.2271,0.2307,0.2361,0.2395,0.2418,0.2436,0.2453,0.2476,0.2554,0.2476,0.2478,0.2553,0.2677,0.2611,0.2621,0.2531,0.2533,0.2534,0.273,0,0.1963,0.2003,0.2037,0.2075,0.2103,0.2154,0.2197,0.2251,0.2301,0.236,0.2395,0.2455,0.2434,0.247,0.2487,0.2551,0.2588,0.2506,0.2641,0.2646,0.2578,0.2633,0.2417,0.2564,0.2744,0.2747,0.2749,0,0.1971,0.1997,0.2034,0.2096,0.2114,0.2139,0.2223,0.2272,0.2359,0.2409,0.2465,0.2507,0.258,0.254,0.2658,0.261,0.2646,0.2676,0.2684,0.2629,0.2605,0.2557,0.2584,0.2773,0.2771,0.277,0.2768,0,0.1946,0.1998,0.2024,0.2046,0.2116,0.2147,0.2188,0.228,0.2348,0.2453,0.2521,0.2593,0.2672,0.2706,0.2769,0.273,0.289,0.2843,0.2825,0.2823,0.2669,0.2649,0.291,0.291,0.2909,0.2909,0.2908,0,0.1948,0.1973,0.2009,0.2027,0.2078,0.2129,0.2209,0.2274,0.2379,0.2475,0.2546,0.2642,0.2714,0.2806,0.2821,0.2886,0.294,0.2854,0.2863,0.2667,0.2646,0.2836,0.2824,0.2916,0.2915,0.2913,0.2912,0,0.1947,0.1962,0.2003,0.2055,0.2072,0.2116,0.2224,0.2286,0.2393,0.2526,0.2572,0.2724,0.286,0.2921,0.3025,0.298,0.3026,0.3023,0.2812,0.279,0.2932,0.2919,0.3049,0.3048,0.3047,0.3047,0.3046,0,0.1961,0.1972,0.2022,0.2052,0.208,0.2145,0.2197,0.2289,0.2371,0.2575,0.264,0.2816,0.2904,0.304,0.3023,0.3061,0.3079,0.2861,0.2716,0.2948,0.2945,0.2933,0.2921,0.2547,0.2542,0.2538,0.2535,0,0.1986,0.1995,0.2021,0.207,0.2111,0.2175,0.2252,0.2299,0.2432,0.2534,0.2675,0.275,0.291,0.2845,0.2893,0.2869,0.2828,0.2785,0.3098,0.2521,0.2482,0.2476,0.248,0.2502,0.2506,0.2508,0.251,0.2511,0.1997,0.2028,0.2036,0.2083,0.214,0.2176,0.2162,0.226,0.233,0.2419,0.257,0.2601,0.2656,0.2611,0.2556,0.253,0.2708,0.2566,0.2575,0.2588,0.247,0.2429,0.2422,0.2425,0.2427,0.2429,0.2431,0,0.1968,0.2,0.2053,0.2083,0.2098,0.215,0.2173,0.2107,0.2124,0.2287,0.2342,0.217,0.2152,0.2222,0.2134,0.2134,0.2082,0.2047,0.1954,0.1991,0.2023,0.1871,0.1667,0.1664,0.1662,0.1659,0,0,0.1949,0.1944,0.1965,0.1974,0.203,0.1963,0.1924,0.1884,0.1913,0.1886,0.1916,0.2047,0.2165,0.1872,0.1852,0.1752,0.1852,0.1691,0.2315,0.2245,0.2272,0.2346,0.2158,0,0,0,0,0]},{"header":{"parameterUnit":"m.s-1","parameterCategory":2,"la1":30.2991,"la2":30.254,"lo1":-89.0895,"lo2":-89.0444,"dy":0.0017,"dx":0.0017,"nx":28,"ny":28,"refTime":"2024-03-12T21:00:00:Z","depth":"2","parameterNumber":3,"parameterNumberName":"V-component_of_CURRENTS"},"data":[0,0,0,0,0,0,0,0,0,0,0,0,0,0,0,0,0,0,0,0,0,0,0,0,0,0,0,0,0,0,0,0,0,0,0,0,0,0,0,0,0,0,0,0,0,0,0,0,0,0,0,0,0,0,0,0,0,0,0.0067,0.0067,0,0.0035,0.0034,0.0034,0.002,0.002,0.002,0.002,-0.0075,-0.0078,-0.008,0,0,0,0,0,0,0,0,0,0,0,0,0,0.0095,0.0095,0.0067,0.0067,0.0066,0.0035,0.0034,0.0034,0.002,0.002,0.002,0.002,-0.0074,-0.0077,-0.008,0,0,0,0,0,0,0,0,0,0,0,0,0,0.0076,0.0095,0.0067,0.0054,0.0053,0.0035,0.0034,0.0034,0.002,0.002,0.002,0.002,-0.0073,-0.0077,-0.0081,-0.0102,0,0,-0.0092,-0.0094,0,0,0,0,0,0,0,0,0.0077,0.0075,0.0057,0.0055,0.0053,0.003,0.0009,-0.0015,0.002,0.0034,0.002,0.002,-0.0047,-0.0052,-0.0056,-0.0106,-0.011,-0.0092,-0.0095,-0.0096,-0.0097,0,0,0,0,0,0,0,0.0079,0.0077,0.0056,0.0056,0.0054,0.0043,0.004,0.0005,-0.0006,0.0033,0.0031,0.0026,-0.0048,-0.0052,-0.0058,-0.0112,-0.0092,-0.0096,-0.0098,-0.0099,-0.0175,-0.0175,0,0,0,0,0,0,0.0081,0.0078,0.0057,0.0054,0.0064,0.0042,0.0039,0.0039,-0.0004,-0.001,0.0026,0.0025,-0.0046,-0.0054,-0.0062,-0.0078,-0.0096,-0.01,-0.0102,-0.0176,-0.0175,-0.0175,0,0,0,0,0,0,0.0082,0.008,0.0058,0.0064,0.006,0.0042,0.0041,0.0038,0.0037,-0.0009,-0.0016,0.0028,-0.0046,-0.0057,-0.0086,-0.0082,-0.0101,-0.0105,-0.0176,-0.0175,-0.0175,-0.0117,0,0,0,0,0,0,0.0083,0.0081,0.0084,0.0065,0.006,0.0056,0.0041,0.0038,0.0033,0.0032,-0.001,-0.0019,-0.0047,-0.008,-0.0089,-0.0087,-0.0108,-0.0176,-0.0176,-0.0175,-0.0119,-0.0115,-0.0111,0,0,0,0,0,0.0084,0.0091,0.0084,0.0081,0.0064,0.0057,0.0054,0.0041,0.0033,0.0039,0.0009,-0.0017,-0.0084,-0.0082,-0.0094,-0.0093,-0.0176,-0.0176,-0.0175,-0.0121,-0.0116,-0.0111,0,0,0,0,0,0,0.0105,0.0089,0.0082,0.0083,0.0074,0.0054,0.0054,0.0045,0.0027,0.0025,-0.0017,-0.0028,-0.0049,-0.0081,-0.0078,-0.0113,-0.0134,-0.0136,-0.0089,-0.0084,-0.008,-0.0057,-0.0111,0,0,0,0,0,0.011,0.0113,0.0094,0.0097,0.0092,0.0074,0.0069,0.0062,0.0042,0.0035,0.0006,-0.0028,-0.0057,-0.0077,-0.0105,-0.013,-0.0153,-0.0136,-0.0132,-0.0128,-0.0117,-0.0156,-0.0154,-0.0174,-0.0174,-0.0174,0,0,0.0118,0.0111,0.0111,0.0102,0.0092,0.0093,0.0072,0.007,0.0074,0.0025,0.0019,-0.0013,-0.0059,-0.0079,-0.0092,-0.0106,-0.0133,-0.0128,-0.0124,-0.0115,-0.0156,-0.0154,-0.0152,-0.0173,-0.0173,-0.0173,0,0,0.0138,0.0128,0.0137,0.0132,0.0122,0.0111,0.0113,0.0097,0.0092,0.0081,0.0048,0.0021,-0.0024,-0.0052,-0.0075,-0.0068,-0.0106,-0.008,-0.0047,-0.0085,-0.0084,-0.0083,-0.01,-0.0101,-0.0083,-0.0083,-0.0083,0,0.0149,0.0158,0.0139,0.0147,0.0148,0.0122,0.0135,0.0125,0.0104,0.0101,0.0088,0.0032,-0.0009,-0.0036,-0.0032,-0.0058,-0.0079,-0.0061,-0.0079,-0.0079,-0.0079,-0.0097,-0.0099,-0.008,-0.008,-0.008,-0.0081,0,0.0174,0.0182,0.0187,0.0189,0.0188,0.0195,0.0178,0.0177,0.0165,0.0153,0.0134,0.0084,0.0052,0.003,-0.0001,-0.0021,-0.0034,-0.0065,-0.0089,-0.0073,-0.0093,-0.0096,-0.0076,-0.0077,-0.0078,-0.0078,0,0,0.0197,0.0205,0.0207,0.022,0.0214,0.0218,0.0222,0.0221,0.0231,0.02,0.0208,0.0151,0.0128,0.0102,0.0057,0.0019,-0.0002,-0.0018,-0.0022,-0.0028,-0.007,-0.011,-0.0117,-0.0039,-0.0039,-0.0039,-0.008,0,0.0226,0.0256,0.025,0.0278,0.0293,0.0276,0.0287,0.0281,0.0272,0.027,0.0216,0.0205,0.0153,0.0142,0.0097,0.0029,-0.0008,0.0014,-0.0089,-0.0092,-0.0125,-0.0122,-0.0089,-0.0126,-0.0083,-0.0083,-0.0084,0,0.0252,0.0273,0.0308,0.0334,0.0338,0.035,0.0368,0.0377,0.0361,0.0355,0.0329,0.0289,0.0243,0.0192,0.0089,0.0106,0.0027,-0.0033,-0.0037,-0.0096,-0.0138,-0.0137,-0.0133,-0.0089,-0.0089,-0.0088,-0.0088,0,0.0282,0.0312,0.0347,0.0353,0.0374,0.0389,0.0403,0.0404,0.0432,0.0414,0.0435,0.0359,0.0347,0.0233,0.0111,0.0101,-0.0006,-0.0041,-0.0151,-0.0154,-0.0156,-0.0159,-0.0124,-0.0124,-0.0124,-0.0124,-0.0124,0,0.0311,0.0334,0.0365,0.0381,0.0432,0.0433,0.0487,0.0485,0.0509,0.0562,0.0488,0.051,0.0357,0.0277,0.0142,-0.0005,0.0014,-0.0138,-0.0171,-0.0135,-0.0135,-0.0132,-0.0132,-0.0125,-0.0125,-0.0125,-0.0124,0,0.0323,0.0341,0.0387,0.0428,0.0446,0.0483,0.0552,0.0594,0.0611,0.068,0.0684,0.0631,0.0534,0.0368,0.0192,0.0055,-0.01,-0.0165,-0.0102,-0.0128,-0.0226,-0.0223,-0.0279,-0.0281,-0.0283,-0.0284,-0.0285,0,0.033,0.0355,0.0425,0.0469,0.0488,0.0551,0.0602,0.0637,0.0702,0.0764,0.0805,0.0735,0.0688,0.0413,0.0165,-0.0079,-0.0111,-0.0219,-0.025,-0.0218,-0.0244,-0.0238,-0.0233,-0.0219,-0.022,-0.022,-0.022,0,0.0339,0.0365,0.0406,0.0507,0.0569,0.0642,0.0726,0.0796,0.0864,0.0932,0.0993,0.0953,0.0712,0.0467,0.0122,-0.0044,-0.0181,-0.0237,-0.0219,-0.0194,-0.0168,-0.0191,-0.0187,-0.0224,-0.0223,-0.0223,-0.0223,-0.0223,0.0352,0.0389,0.0454,0.0552,0.0628,0.0723,0.0773,0.0901,0.1009,0.1115,0.1097,0.106,0.0787,0.0346,0.0066,-0.0211,-0.0208,-0.0311,-0.0307,-0.0303,-0.0298,-0.0277,-0.0351,-0.0351,-0.0351,-0.0352,-0.0352,0,0.0372,0.0424,0.0502,0.0599,0.0669,0.0716,0.0844,0.0902,0.1047,0.1182,0.1219,0.0972,0.069,0.0397,-0.0016,-0.029,-0.0295,-0.0367,-0.0305,-0.03,-0.0297,-0.0289,-0.0341,-0.0342,-0.0342,-0.0343,0,0,0.0384,0.045,0.0495,0.0605,0.0678,0.0754,0.082,0.0963,0.1076,0.1183,0.1214,0.113,0.0784,0.0485,0.0131,-0.0094,-0.0136,-0.0143,-0.0124,-0.0005,0.0003,-0.024,-0.0221,0,0,0,0,0]}],[{"header":{"parameterUnit":"m.s-1","parameterCategory":2,"la1":30.2991,"la2":30.254,"lo1":-89.0895,"lo2":-89.0444,"dy":0.0017,"dx":0.0017,"nx":28,"ny":28,"refTime":"2024-03-12T21:00:00:Z","depth":"4","parameterNumber":2,"parameterNumberName":"U-component_of_CURRENTS"},"data":[0,0,0,0,0,0,0,0,0,0,0,0,0,0,0,0,0,0,0,0,0,0,0,0,0,0,0,0,0,0,0,0,0,0,0,0,0,0,0,0,0,0,0,0,0,0,0,0,0,0,0,0,0,0,0,0,0,0,0.1134,0.1134,0,0.1119,0.1119,0.1119,0.1147,0.1148,0.1149,0.1149,0.1126,0.1124,0.1123,0,0,0,0,0,0,0,0,0,0,0,0,0,0.1195,0.1194,0.1134,0.1134,0.1134,0.1119,0.1119,0.1119,0.1147,0.1148,0.1149,0.115,0.1126,0.1124,0.1123,0,0,0,0,0,0,0,0,0,0,0,0,0,0.1175,0.1194,0.1134,0.1145,0.1145,0.1119,0.1119,0.1119,0.1147,0.1148,0.1149,0.115,0.1127,0.1125,0.1123,0.1086,0,0,0.1116,0.1115,0,0,0,0,0,0,0,0,0.1176,0.1173,0.1143,0.1144,0.1144,0.1134,0.1131,0.1107,0.1146,0.1148,0.1149,0.1151,0.1126,0.1124,0.1121,0.1085,0.1084,0.1116,0.1115,0.1114,0.1113,0,0,0,0,0,0,0,0.1177,0.1173,0.113,0.1143,0.1143,0.1152,0.115,0.1127,0.1132,0.1148,0.115,0.1144,0.1126,0.1123,0.1121,0.1084,0.1116,0.1114,0.1113,0.1112,0.1113,0.1114,0,0,0,0,0,0,0.1173,0.1174,0.113,0.1129,0.1161,0.115,0.1148,0.1138,0.1132,0.1132,0.1143,0.1146,0.1126,0.1123,0.112,0.1182,0.1114,0.1112,0.1111,0.1111,0.1113,0.1114,0,0,0,0,0,0,0.1175,0.1169,0.1131,0.1151,0.1146,0.1147,0.1136,0.1137,0.1161,0.1129,0.1129,0.1169,0.1127,0.1123,0.1139,0.1177,0.1111,0.1109,0.111,0.1112,0.1114,0.1237,0,0,0,0,0,0,0.1176,0.117,0.1183,0.115,0.1145,0.1122,0.1134,0.1136,0.1153,0.1157,0.1149,0.1147,0.1127,0.1143,0.1137,0.1173,0.1108,0.1108,0.1111,0.1113,0.1232,0.1243,0.1253,0,0,0,0,0,0.1179,0.1184,0.1184,0.118,0.1156,0.1122,0.1121,0.1127,0.1154,0.1156,0.1176,0.1149,0.1153,0.1142,0.1136,0.1172,0.1107,0.111,0.1113,0.1227,0.1241,0.1253,0,0,0,0,0,0,0.1216,0.1186,0.1186,0.1183,0.1158,0.1126,0.1141,0.1142,0.1159,0.1186,0.1164,0.1162,0.1197,0.1158,0.1146,0.1177,0.1125,0.1127,0.1214,0.1227,0.1238,0.1225,0.1106,0,0,0,0,0,0.1228,0.1232,0.1191,0.1193,0.1185,0.117,0.117,0.1171,0.1169,0.118,0.1176,0.1181,0.1196,0.1193,0.1191,0.1195,0.1184,0.1212,0.1223,0.1233,0.1217,0.1253,0.1266,0.1123,0.1123,0.1123,0,0,0.1246,0.123,0.1235,0.1203,0.1195,0.1188,0.1175,0.118,0.1194,0.1173,0.1212,0.1224,0.1209,0.1237,0.1245,0.1211,0.1274,0.1236,0.1245,0.1223,0.1258,0.1272,0.1284,0.1125,0.1125,0.1125,0,0,0.1268,0.1266,0.1273,0.1256,0.1243,0.1228,0.1234,0.1217,0.1235,0.126,0.127,0.1297,0.1299,0.1298,0.1299,0.1355,0.1341,0.1366,0.1398,0.1435,0.1447,0.1458,0.1494,0.1506,0.1358,0.1358,0.1358,0,0.1292,0.1288,0.1269,0.1267,0.1264,0.125,0.1253,0.1261,0.126,0.1277,0.1289,0.134,0.1325,0.1365,0.1391,0.138,0.1405,0.1358,0.1451,0.1461,0.147,0.1503,0.1516,0.1364,0.1364,0.1363,0.1362,0,0.1305,0.1315,0.1318,0.1314,0.1307,0.1309,0.13,0.1319,0.1349,0.1354,0.1416,0.1421,0.1445,0.1455,0.144,0.1498,0.1501,0.1478,0.1425,0.1492,0.1523,0.1534,0.1373,0.1371,0.1369,0.1368,0,0,0.1308,0.1326,0.1329,0.1338,0.1335,0.1323,0.1359,0.1366,0.1407,0.1435,0.1487,0.152,0.1539,0.1539,0.1542,0.1559,0.165,0.1549,0.1548,0.1594,0.1756,0.1653,0.1654,0.1667,0.1669,0.1671,0.1765,0,0.1321,0.1339,0.1343,0.1364,0.1365,0.1372,0.1399,0.1418,0.1454,0.1502,0.153,0.1587,0.157,0.1612,0.1633,0.1646,0.168,0.1627,0.1672,0.1672,0.1581,0.1662,0.1676,0.1773,0.1775,0.1777,0.1778,0,0.1314,0.133,0.1359,0.1388,0.1391,0.1412,0.1457,0.1481,0.1538,0.1579,0.1642,0.1671,0.1719,0.1698,0.1764,0.1745,0.1759,0.1761,0.1764,0.1621,0.1587,0.168,0.1797,0.1795,0.1794,0.1793,0.1791,0,0.1297,0.1332,0.1363,0.137,0.1404,0.1436,0.146,0.1511,0.1545,0.1641,0.1696,0.1759,0.1817,0.1841,0.1854,0.183,0.192,0.1883,0.1805,0.1799,0.1809,0.1795,0.1931,0.1931,0.1931,0.193,0.193,0,0.1275,0.1296,0.137,0.1379,0.1421,0.145,0.1507,0.1548,0.1624,0.1671,0.1747,0.1802,0.1861,0.1912,0.1902,0.1894,0.1971,0.182,0.1817,0.1862,0.1854,0.1818,0.1804,0.1934,0.1933,0.1933,0.1932,0,0.1217,0.1275,0.1308,0.1381,0.1409,0.1438,0.1515,0.1552,0.165,0.1721,0.1761,0.1863,0.1931,0.1975,0.2021,0.1955,0.1949,0.1929,0.1999,0.1997,0.1792,0.1783,0.1842,0.1839,0.1836,0.1834,0.1833,0,0.1177,0.1198,0.1295,0.1326,0.1361,0.1421,0.1456,0.1551,0.1589,0.1734,0.1755,0.1877,0.1929,0.1928,0.197,0.1974,0.194,0.1934,0.1825,0.1792,0.1784,0.1778,0.1773,0.1829,0.1828,0.1828,0.1827,0,0.1091,0.115,0.118,0.1248,0.1306,0.1345,0.141,0.1437,0.1548,0.1668,0.1719,0.1755,0.1836,0.1858,0.1898,0.1881,0.1926,0.1907,0.191,0.1808,0.1777,0.177,0.1767,0.1819,0.182,0.1821,0.1821,0,0.1023,0.1028,0.1091,0.1139,0.1208,0.123,0.1288,0.134,0.1396,0.1567,0.1582,0.1707,0.182,0.1812,0.1832,0.183,0.1779,0.1696,0.1709,0.1719,0.163,0.1569,0.1554,0,0,0,0,0,0.0932,0.0931,0.0968,0.1011,0.108,0.1116,0.1225,0.1291,0.143,0.1433,0.1502,0.1565,0.1612,0.1669,0.1637,0.1756,0.1775,0.171,0.1684,0.1772,0.1782,0.1685,0,0,0,0,0,0,0.0868,0.0896,0.0917,0.0894,0.0902,0.0952,0.1022,0.1127,0.1136,0.1295,0.1333,0.1453,0.1522,0.1606,0.1596,0.1615,0.1563,0.1791,0.1787,0.1767,0.1775,0.1783,0.1687,0,0,0,0,0]},{"header":{"parameterUnit":"m.s-1","parameterCategory":2,"la1":30.2991,"la2":30.254,"lo1":-89.0895,"lo2":-89.0444,"dy":0.0017,"dx":0.0017,"nx":28,"ny":28,"refTime":"2024-03-12T21:00:00:Z","depth":"4","parameterNumber":3,"parameterNumberName":"V-component_of_CURRENTS"},"data":[0,0,0,0,0,0,0,0,0,0,0,0,0,0,0,0,0,0,0,0,0,0,0,0,0,0,0,0,0,0,0,0,0,0,0,0,0,0,0,0,0,0,0,0,0,0,0,0,0,0,0,0,0,0,0,0,0,0,0.0034,0.0034,0,0.0,0.0,-0.0,-0.0021,-0.0021,-0.0022,-0.0022,-0.0119,-0.0122,-0.0124,0,0,0,0,0,0,0,0,0,0,0,0,0,0.0058,0.0058,0.0034,0.0034,0.0033,0.0001,0.0,-0.0,-0.0021,-0.0021,-0.0022,-0.0022,-0.0119,-0.0121,-0.0124,0,0,0,0,0,0,0,0,0,0,0,0,0,0.0039,0.0058,0.0034,0.0018,0.0016,0.0001,0.0,-0.0,-0.0021,-0.0021,-0.0022,-0.0022,-0.0118,-0.0121,-0.0125,-0.0141,0,0,-0.0136,-0.0137,0,0,0,0,0,0,0,0,0.0041,0.0039,0.0021,0.0019,0.0017,-0.0007,-0.0027,-0.0051,-0.0021,-0.0006,-0.0022,-0.0022,-0.0088,-0.0094,-0.0098,-0.0146,-0.015,-0.0136,-0.0138,-0.014,-0.0141,0,0,0,0,0,0,0,0.0042,0.004,0.0022,0.0021,0.0018,0.0005,0.0002,-0.0032,-0.0046,-0.0007,-0.0009,-0.0014,-0.009,-0.0094,-0.01,-0.0152,-0.0136,-0.0139,-0.0142,-0.0143,-0.0225,-0.0225,0,0,0,0,0,0,0.0046,0.0041,0.0023,0.0021,0.0027,0.0005,0.0002,0.0002,-0.0044,-0.0051,-0.0014,-0.0015,-0.0088,-0.0096,-0.0104,-0.0126,-0.014,-0.0143,-0.0145,-0.0225,-0.0225,-0.0225,0,0,0,0,0,0,0.0047,0.0045,0.0024,0.0029,0.0025,0.0005,0.0005,0.0001,-0.0004,-0.0048,-0.0056,-0.0015,-0.0088,-0.0099,-0.0132,-0.013,-0.0145,-0.0148,-0.0225,-0.0225,-0.0225,-0.0171,0,0,0,0,0,0,0.0048,0.0045,0.0048,0.003,0.0025,0.0015,0.0005,0.0001,-0.0007,-0.0009,-0.0053,-0.0062,-0.0089,-0.0126,-0.0135,-0.0135,-0.0151,-0.0225,-0.0225,-0.0225,-0.0173,-0.0169,-0.0166,0,0,0,0,0,0.0049,0.0053,0.0049,0.0046,0.003,0.0015,0.0011,-0.0004,-0.0007,-0.0009,-0.0036,-0.006,-0.0133,-0.0129,-0.014,-0.0141,-0.0225,-0.0225,-0.0225,-0.0174,-0.017,-0.0166,0,0,0,0,0,0,0.0064,0.0051,0.0046,0.0046,0.0031,0.0011,0.0009,-0.0001,-0.0022,-0.0022,-0.0062,-0.0073,-0.0103,-0.0129,-0.0124,-0.0165,-0.0183,-0.0185,-0.014,-0.0136,-0.0133,-0.0116,-0.0154,0,0,0,0,0,0.007,0.0072,0.0053,0.0054,0.0049,0.0031,0.0024,0.0014,-0.0007,-0.0016,-0.0045,-0.0078,-0.0111,-0.0128,-0.0162,-0.0184,-0.0211,-0.0192,-0.0189,-0.0186,-0.0179,-0.022,-0.0219,-0.0225,-0.0225,-0.0225,0,0,0.0075,0.007,0.007,0.0058,0.0048,0.0046,0.0026,0.002,0.0019,-0.0025,-0.0035,-0.007,-0.0115,-0.0139,-0.0154,-0.0161,-0.0198,-0.0186,-0.0182,-0.0178,-0.022,-0.0219,-0.0219,-0.0225,-0.0225,-0.0225,0,0,0.009,0.0085,0.0091,0.0082,0.007,0.006,0.0059,0.0041,0.0032,0.0016,-0.0016,-0.0044,-0.0092,-0.0119,-0.0141,-0.0139,-0.0181,-0.0155,-0.0122,-0.0161,-0.0161,-0.0161,-0.0189,-0.0192,-0.015,-0.015,-0.015,0,0.0098,0.0105,0.0089,0.0093,0.0092,0.0069,0.0076,0.0064,0.0038,0.0031,0.0019,-0.0043,-0.0079,-0.0111,-0.0108,-0.0131,-0.0159,-0.0132,-0.0156,-0.0157,-0.0158,-0.0187,-0.0191,-0.0147,-0.0148,-0.0148,-0.0148,0,0.0116,0.0122,0.0125,0.0127,0.0122,0.0124,0.0106,0.0101,0.009,0.0074,0.0044,-0.0002,-0.0037,-0.0056,-0.0081,-0.0107,-0.0126,-0.0148,-0.0163,-0.0154,-0.0185,-0.019,-0.0144,-0.0145,-0.0145,-0.0146,0,0,0.013,0.0138,0.0139,0.0149,0.0142,0.0141,0.0142,0.0133,0.0136,0.0105,0.0099,0.0047,0.0024,-0.0002,-0.0042,-0.0074,-0.0102,-0.0108,-0.0111,-0.0128,-0.0185,-0.0184,-0.019,-0.0132,-0.0133,-0.0134,-0.0201,0,0.015,0.0172,0.0168,0.0188,0.0198,0.0184,0.0188,0.0177,0.0163,0.0151,0.0102,0.0079,0.0043,0.0028,-0.001,-0.0083,-0.0114,-0.0081,-0.0197,-0.02,-0.0195,-0.0196,-0.0136,-0.0205,-0.0207,-0.0208,-0.0208,0,0.0164,0.0181,0.0207,0.0225,0.0228,0.0238,0.0245,0.0246,0.0221,0.0209,0.0179,0.0138,0.0089,0.0057,-0.0051,-0.0031,-0.0098,-0.0154,-0.0158,-0.018,-0.021,-0.022,-0.0218,-0.0217,-0.0217,-0.0216,-0.0215,0,0.018,0.0206,0.0233,0.0238,0.0253,0.0265,0.0274,0.0266,0.0273,0.0248,0.0246,0.0178,0.0146,0.0054,-0.0055,-0.0057,-0.0178,-0.0198,-0.026,-0.0261,-0.0264,-0.0264,-0.0272,-0.0272,-0.0272,-0.0272,-0.0271,0,0.0194,0.0209,0.0246,0.0257,0.029,0.0296,0.0324,0.0319,0.0324,0.0336,0.0281,0.0265,0.0142,0.0058,-0.0043,-0.0164,-0.0171,-0.0252,-0.0279,-0.0239,-0.0235,-0.0268,-0.0266,-0.0274,-0.0274,-0.0273,-0.0273,0,0.018,0.0209,0.0238,0.0277,0.0295,0.0316,0.036,0.0376,0.0384,0.0396,0.0391,0.0324,0.0217,0.009,-0.0065,-0.0142,-0.0262,-0.0305,-0.0244,-0.0267,-0.032,-0.0315,-0.0374,-0.0375,-0.0376,-0.0376,-0.0376,0,0.0163,0.0184,0.0247,0.0274,0.029,0.0334,0.0363,0.0396,0.0421,0.0429,0.0431,0.0347,0.0283,0.008,-0.0065,-0.0253,-0.0283,-0.0339,-0.0334,-0.031,-0.0331,-0.0325,-0.032,-0.0377,-0.0377,-0.0377,-0.0377,0,0.0128,0.0161,0.0188,0.0257,0.0301,0.0351,0.0403,0.0433,0.0474,0.0483,0.0471,0.0374,0.0252,0.0088,-0.0059,-0.0198,-0.0298,-0.0345,-0.0345,-0.0341,-0.0314,-0.0333,-0.0327,-0.0379,-0.0379,-0.0379,-0.0379,0,0.0094,0.0113,0.0173,0.0236,0.0291,0.0356,0.0388,0.0435,0.0474,0.0506,0.0494,0.0378,0.0315,0.0115,-0.0025,-0.0156,-0.0191,-0.0228,-0.0235,-0.0235,-0.0178,-0.0123,-0.0149,0,0,0,0,0,0.0062,0.0106,0.015,0.0233,0.0289,0.0339,0.0408,0.0443,0.0499,0.0502,0.0512,0.0407,0.0221,0.0132,0.0001,-0.0064,-0.0238,-0.0223,-0.029,-0.0388,-0.0386,-0.0344,0,0,0,0,0,0,0.005,0.009,0.0143,0.0226,0.0283,0.0356,0.0406,0.0444,0.0457,0.0491,0.0393,0.0377,0.0184,0.03,0.0001,-0.004,-0.01,-0.0304,-0.0307,-0.039,-0.0388,-0.0386,-0.0342,0,0,0,0,0]}]]